Regional Weather Roundup
Issued by NWS

Home | Current Version | Previous Version | Graphics & Text | Print | Product List | Glossary On
Versions: 1 2 3 4 5 6 7 8 9 10 11 12 13 14 15 16 17 18 19 20 21 22 23 24 25 26 27 28 29 30 31 32 33 34 35 36 37 38 39 40 41 42 43 44 45 46 47 48 49 50
000
ASUS43 KDTX 280901
RWRMI
MICHIGAN HOURLY REGIONAL WEATHER ROUNDUP
NATIONAL WEATHER SERVICE DETROIT/PONTIAC MI
500 AM EDT THU MAY 28 2015

NOTE: "FAIR" INDICATES FEW OR NO CLOUDS BELOW 12,000 FEET WITH NO
SIGNIFICANT WEATHER AND/OR OBSTRUCTION TO VISIBILITY.

MIZ047>049-052>055-059>063-066>070-074>076-081>083-281000-
SOUTHEAST LOWER MICHIGAN

CITY           SKY/WX    TMP DP  RH WIND       PRES   REMARKS
ADRIAN         CLEAR     54  53  97 CALM      30.19R
ALMA           FOG       52  52  99 CALM      30.17R VSB 3/4
ANN ARBOR      FOG       49  48  97 CALM      30.19R VSB 1/4
BAD AXE        CLEAR     48  47  94 CALM      30.17R
CARO           PTCLDY    53  53  98 CALM      30.16R
DETROIT CITY   CLEAR     59  55  87 CALM      30.18R
DETROIT        PTCLDY    59  55  87 W3        30.19R
FLINT          CLEAR     56  53  90 CALM      30.18R
GROSSE ILE     CLEAR     57  55  94 CALM      30.16R
HILLSDALE      FOG       52  52 100 CALM      30.20R VSB 3/4
HOWELL         CLEAR     54  53  97 W3        30.19R FOG

CITY           SKY/WX    TMP DP  RH WIND       PRES   REMARKS
JACKSON        CLEAR     50  49  96 W3        30.19R FOG
LAMBERTVILLE   FOG       55  54  94 CALM      30.18R VSB 1/2
LANSING        CLEAR     53  52  96 CALM      30.19R
LAPEER         FAIR      51  49  96 CALM      30.18R FOG
MASON          PTCLDY    52  51  98 CALM      30.19R FOG
MONROE           N/A     55  55 100 CALM      30.16R FOG
MT. CLEMENS    CLEAR     55  55  97 W3        30.16R
PONTIAC        PTCLDY    55  54  96 CALM      30.18R
PORT HOPE        N/A     55  50  83 CALM      30.14S
PORT HURON     FOG       50  50 100 CALM      30.17R VSB 1/2
TRI CITIES     MOCLDY    59  56  89 SW6       30.17R
MIDLAND        FAIR      56  55  97 CALM      30.15R
TROY           CLEAR     59  57  91 NW5       30.20R
SAGINAW HB     MOCLDY    55  55 100 S5        30.17R
$$
MIZ043>046-050>051-056>058-064>065-071>073-077>080-281000-
SOUTHWEST LOWER MICHIGAN

CITY           SKY/WX    TMP DP  RH WIND       PRES   REMARKS
BATTLE CREEK   CLEAR     54  51  90 S3        30.19R
BENTON HARBOR  CLEAR     51  51 100 CALM      30.18R FOG
BIG RAPIDS     MOCLDY    56  53  89 S5        30.16R
COLDWATER      FOG       49  49  99 CALM      30.19S VSB 1/2
FREMONT        FAIR      53  53  98 S5        30.17F
HOLLAND        CLEAR     55  53  93 S3        30.17S
GRAND RAPIDS   CLEAR     55  54  96 CALM      30.18R
IONIA          FAIR      54  53  97 CALM      30.18R FOG
KALAMAZOO      CLEAR     54  52  93 CALM      30.19R
LUDINGTON      MOCLDY    58  54  85 S5        30.15S
MARSHALL       CLEAR     52  51  97 CALM      30.18R FOG
MOUNT PLEASANT PTCLDY    57  55  92 CALM      30.15S
MUSKEGON       CLEAR     53  51  93 SW3       30.17R
SOUTH HAVEN    CLEAR     52  51  97 CALM      30.18S FOG
$$
MIZ016>042-281000-
NORTHERN LOWER MICHIGAN

CITY           SKY/WX    TMP DP  RH WIND       PRES   REMARKS
ALPENA         PTCLDY    52  50  93 S3        30.13R
BEAVER ISLAND  CLEAR     47  45  91 CALM      30.13R
BELLAIRE       CLEAR     52  51  96 CALM      30.12R FOG
CADILLAC       PTCLDY    54  53  97 SW3       30.14R FOG
CHARLEVOIX     CLEAR     53  53  98 CALM      30.15R
FRANKFORT      CLEAR     56  49  78 CALM      30.13R
GAYLORD        CLEAR     55  54  96 CALM      30.13R
HARBOR SPRINGS CLEAR     51  51  99 CALM      30.12R
HOUGHTON LAKE  PTCLDY    54  52  93 S6        30.14R
MANISTEE       PTCLDY    55  52  88 SW3       30.15R
OSCODA         MOCLDY    53  52  95 CALM      30.14R
PELLSTON       CLEAR     51  49  92 CALM      30.12R
ROGERS CITY    PTCLDY    56  53  91 SW5       30.13R
TRAVERSE CITY  CLEAR     55  53  93 CALM      30.11R
$$
MIZ007>008-015-281000-
EASTERN UPPER MICHIGAN

CITY           SKY/WX    TMP DP  RH WIND       PRES   REMARKS
KINROSS        PTCLDY    48  48 100 CALM      30.11R
MACKINAC ISLAN PTCLDY    53  52  97 W9        30.11R
NEWBERRY       FOG       49  49  99 CALM      30.11R VSB 1/2
S. S. MARIE    PTCLDY    48  47  96 CALM      30.11R FOG
$$
MIZ004>006-011>014-085-281000-
CENTRAL UPPER MICHIGAN

CITY           SKY/WX    TMP DP  RH WIND       PRES   REMARKS
MANISTIQUE     FOG       46  45  97 CALM      30.10S VSB 1
ESCANABA       CLOUDY    52  48  87 NE6       30.10R VSB 1/4
MENOMINEE      CLEAR     52  48  87 CALM      30.11R
SAWYER-GWINN   FOG       44  43  96 N7        30.13R VSB 1/4
$$
MIZ001>003-009>011-084-281000-
WESTERN UPPER MICHIGAN

CITY           SKY/WX    TMP DP  RH WIND       PRES   REMARKS
IRON MOUNTAIN  CLEAR     50  48  93 CALM      30.10R
HOUGHTON       CLOUDY    46  42  86 E9        30.13R
COPPER HARBOR    N/A     44  39  82 VRB5      30.15R
IRONWOOD         N/A     48  48 100 CALM      30.06R VSB 1/2
$$

ABBREVIATIONS USED IN REMARKS
   TC - TEMPERATURE IN CELSIUS
  WCI - WIND CHILL INDEX
   HX - HEAT INDEX
  VSB - VISIBILITY




USA.gov is the U.S. government's official web portal to all federal, state and local government web resources and services.